User: anonymous   Login
Location: Brno
(49.2000°N, 16.6330°E)
Time: 16:53:48
(UTC+01:00)
Language:

ISS - Orbit

View from above orbital plane
View from above orbital plane
View from above satellite
View from above satellite

Ground track
Ground track

The orbit data is extracted from the following two-line orbital elements,

1 25544U 98067A   18052.26556069  .00016717  00000-0  10270-3 0  9057
2 25544  51.6397 236.6170 0002938 116.3316 243.8139 15.54110040 20486
Epoch (UTC): 21 February 2018 06:22:24
Eccentricity: 0.0002938
inclination: 51.6397°
perigee height: 403 km
apogee height: 407 km
right ascension of ascending node: 236.6170°
argument of perigee: 116.3316°
revolutions per day: 15.54110040
mean anomaly at epoch: 243.8139°
orbit number at epoch: 2048

The dashed part of the orbit path shows where the satellite is in the earth's shadow,  

DLR